| time (UTC) | temp F | wind direction | speed MPH | gust MPH | rain 1hr in | rain 24hr in | rain mn in | humidity % | barometer mb |
| 20260504174502 | 59 | 359 | 0.0 | 0.0 | 0.00 | 0.02 | 0.00 | 40 | 1016.3 |
| 20260504173004 | 59 | 359 | 0.0 | 0.0 | 0.00 | 0.02 | 0.00 | 40 | 1015.6 |
| 20260504171508 | 59 | 323 | 0.0 | 0.0 | 0.00 | 0.02 | 0.00 | 40 | 1015.1 |
| 20260504081507 | 71 | 120 | 5.0 | 13.0 | 0.00 | 0.02 | 0.02 | 45 | 1000.5 |
| 20260504050008 | 77 | 359 | 6.0 | 16.0 | 0.00 | 0.02 | 0.02 | 46 | 999.2 |
| 20260504044505 | 78 | 336 | 6.0 | 19.0 | 0.00 | 0.02 | 0.02 | 44 | 999.1 |
| 20260504043007 | 79 | 339 | 3.0 | 15.0 | 0.00 | 0.02 | 0.02 | 46 | 999.2 |
| 20260504041505 | 79 | 146 | 3.0 | 11.0 | 0.00 | 0.02 | 0.02 | 45 | 999.5 |
| 20260504040008 | 79 | 222 | 4.0 | 10.0 | 0.00 | 0.02 | 0.02 | 47 | 999.9 |
| 20260504034505 | 78 | 298 | 3.0 | 8.0 | 0.00 | 0.02 | 0.02 | 47 | 1000.0 |
| 20260504033007 | 77 | 298 | 5.0 | 12.0 | 0.00 | 0.02 | 0.02 | 48 | 1000.2 |
| 20260504031505 | 77 | 338 | 0.0 | 0.0 | 0.00 | 0.02 | 0.02 | 50 | 1000.1 |
| 20260504030008 | 77 | 51 | 1.0 | 4.0 | 0.00 | 0.02 | 0.02 | 60 | 1000.6 |
| 20260504024505 | 76 | 208 | 0.0 | 2.0 | 0.00 | 0.02 | 0.02 | 80 | 1000.8 |
| 20260504021510 | 75 | 359 | 1.0 | 4.0 | 0.00 | 0.02 | 0.02 | 82 | 1000.9 |
| 20260504020007 | 77 | 359 | 2.0 | 5.0 | 0.00 | 0.02 | 0.02 | 56 | 1000.9 |
| 20260504013005 | 77 | 138 | 2.0 | 9.0 | 0.00 | 0.02 | 0.02 | 89 | 1001.1 |
| 20260504011508 | 76 | 359 | 2.0 | 6.0 | 0.00 | 0.02 | 0.02 | 97 | 1001.1 |
| 20260504010005 | 76 | 322 | 1.0 | 6.0 | 0.00 | 0.02 | 0.02 | 100 | 1001.0 |
| 20260504004503 | 76 | 278 | 2.0 | 8.0 | 0.00 | 0.02 | 0.02 | 100 | 1001.2 |
| 20260504001507 | 73 | 158 | 2.0 | 9.0 | 0.00 | 0.02 | 0.02 | 100 | 1001.3 |
| 20260504000004 | 71 | 124 | 5.0 | 12.0 | 0.00 | 0.02 | 0.02 | 100 | 1001.4 |
| 20260503234507 | 70 | 93 | 5.0 | 15.0 | 0.00 | 0.02 | 0.02 | 100 | 1001.2 |
| 20260503233003 | 69 | 162 | 5.0 | 20.0 | 0.00 | 0.02 | 0.02 | 100 | 1001.1 |
| 20260503230004 | 69 | 359 | 2.0 | 9.0 | 0.00 | 0.02 | 0.02 | 100 | 1001.9 |
| 20260503224507 | 70 | 197 | 7.0 | 17.0 | 0.00 | 0.02 | 0.02 | 100 | 1001.8 |
| 20260503223003 | 70 | 166 | 3.0 | 9.0 | 0.00 | 0.02 | 0.02 | 100 | 1001.6 |
| 20260503221506 | 70 | 76 | 3.0 | 10.0 | 0.00 | 0.02 | 0.02 | 100 | 1001.6 |
| 20260503214506 | 69 | 298 | 6.0 | 12.0 | 0.00 | 0.02 | 0.02 | 100 | 1001.5 |
| 20260503213002 | 69 | 288 | 6.0 | 20.0 | 0.00 | 0.02 | 0.02 | 100 | 1001.3 |
| 20260503211506 | 69 | 124 | 7.0 | 15.0 | 0.00 | 0.02 | 0.02 | 100 | 1001.3 |
| 20260503210003 | 69 | 65 | 3.0 | 12.0 | 0.00 | 0.00 | 0.00 | 100 | 1001.4 |
| 20260503203036 | 69 | 239 | 9.0 | 30.0 | 0.00 | 0.00 | 0.00 | 100 | 1001.6 |
| 20260503201506 | 69 | 329 | 3.0 | 10.0 | 0.00 | 0.00 | 0.00 | 100 | 1001.6 |
| 20260503200004 | 69 | 14 | 2.0 | 9.0 | 0.00 | 0.00 | 0.00 | 100 | 1001.5 |
| 20260503194505 | 69 | 359 | 7.0 | 18.0 | 0.00 | 0.00 | 0.00 | 100 | 1001.6 |
| 20260503193003 | 69 | 132 | 15.0 | 38.0 | 0.00 | 0.00 | 0.00 | 100 | 1001.7 |
| 20260503191505 | 68 | 359 | 15.0 | 34.0 | 0.00 | 0.00 | 0.00 | 100 | 1001.5 |
| 20260503190008 | 68 | 221 | 11.0 | 34.0 | 0.00 | 0.00 | 0.00 | 100 | 1001.8 |
| 20260503184505 | 68 | 263 | 12.0 | 27.0 | 0.00 | 0.00 | 0.00 | 100 | 1002.3 |
| 20260503181505 | 68 | 359 | 11.0 | 25.0 | 0.00 | 0.00 | 0.00 | 100 | 1003.0 |